Dubois Muni, Dubois, WY, WY

8:46 PM MDT on March 27, 2017 (GMT -0600)
Dubois Muni, Dubois, WY

Weather History for KDUB - January, 2014

Change the Weather History Date:

Saturday, January 25, 2014

  Actual Average (KJAC) Record (KJAC)
Temperature  
Mean Temperature 37 °F -  
Max Temperature 44 °F 26 °F 42 °F (1992)
Min Temperature 30 °F 1 °F -30 °F (1989)
Degree Days  
Heating Degree Days 28    
Moisture  
Dew Point 17 °F    
Average Humidity 48    
Maximum Humidity 60    
Minimum Humidity 31    
Precipitation  
Precipitation 0.00 in - - ()
Sea Level Pressure  
Sea Level Pressure 30.18 in    
Wind  
Wind Speed 19 mph (NW)    
Max Wind Speed 30 mph    
Max Gust Speed 36 mph    
Visibility 10 miles    
Events      
Averages and records for this station are not official NWS values.
T = Trace of Precipitation, MM = Missing Value Source: NWS Daily Summary

Daily Weather History Graph

Daily Weather History Graph

Search for Another Location

Airport or City:

Trip Planner

Search our weather history database for the weather conditions in past years. The results will help you decide how hot, cold, wet, or windy it might be!

Date:

Astronomy

Jan. 25, 2014 Rise Set
Actual Time 7:41 AM MST 5:20 PM MST
Civil Twilight 7:10 AM MST 5:51 PM MST
Nautical Twilight 6:36 AM MST 6:26 PM MST
Astronomical Twilight 6:02 AM MST 7:00 PM MST
Moon 2:16 AM MST (1/25) 12:24 PM MST (1/25)
Length of Visible Light 10h 40m
Length of Day
9h 39m
Waning Crescent, 33% of the Moon is Illuminated
Jan 25
Waning Crescent
Jan 30
New
Feb 6
First Quarter
Feb 14
Full
Feb 22
Last Quarter

Hourly Weather History & Observations

Time (MST) Temp. Windchill Dew Point Humidity Pressure Visibility Wind Dir Wind Speed Gust Speed Precip Events Conditions
12:15 AM 35.6 °F 24.0 °F 17.6 °F 48% 30.30 in 10.0 mi WNW 23.0 mph 32.2 mph N/A   Clear
12:35 AM 35.6 °F 26.2 °F 17.6 °F 48% 30.31 in 10.0 mi WNW 15.0 mph 23.0 mph N/A   Clear
12:55 AM 35.6 °F 25.2 °F 17.6 °F 48% 30.31 in 10.0 mi WNW 18.4 mph 32.2 mph N/A   Clear
1:15 AM 33.8 °F 22.5 °F 17.6 °F 52% 30.31 in 10.0 mi WNW 19.6 mph 26.5 mph N/A   Clear
1:35 AM 33.8 °F 23.9 °F 17.6 °F 52% 30.30 in 10.0 mi WNW 15.0 mph 25.3 mph N/A   Clear
1:55 AM 33.8 °F 21.6 °F 17.6 °F 52% 30.30 in 10.0 mi WNW 23.0 mph 28.8 mph N/A   Clear
2:15 AM 33.8 °F 23.2 °F 17.6 °F 52% 30.30 in 10.0 mi NW 17.3 mph 26.5 mph N/A   Clear
2:35 AM 32.0 °F 22.1 °F 15.8 °F 51% 30.30 in 10.0 mi NW 13.8 mph - N/A   Clear
2:55 AM 32.0 °F 19.5 °F 17.6 °F 55% 30.28 in 10.0 mi NW 21.9 mph 27.6 mph N/A   Clear
3:15 AM 32.0 °F 18.9 °F 15.8 °F 51% 30.28 in 10.0 mi NW 24.2 mph - N/A   Clear
3:35 AM 32.0 °F 19.2 °F 15.8 °F 51% 30.26 in 10.0 mi NW 23.0 mph - N/A   Clear
3:55 AM 32.0 °F 19.8 °F 15.8 °F 51% 30.26 in 10.0 mi NW 20.7 mph - N/A   Clear
4:15 AM 30.2 °F 18.1 °F 17.6 °F 60% 30.26 in 10.0 mi NW 18.4 mph 23.0 mph N/A   Clear
4:35 AM 32.0 °F 20.5 °F 17.6 °F 55% 30.25 in 10.0 mi NW 18.4 mph 21.9 mph N/A   Clear
4:55 AM 30.2 °F 18.5 °F 17.6 °F 60% 30.25 in 10.0 mi NW 17.3 mph - N/A   Clear
5:15 AM 30.2 °F 18.1 °F 17.6 °F 60% 30.24 in 10.0 mi NW 18.4 mph 23.0 mph N/A   Clear
5:35 AM 32.0 °F 20.8 °F 17.6 °F 55% 30.23 in 10.0 mi NNW 17.3 mph - N/A   Clear
5:55 AM 32.0 °F 18.6 °F 19.4 °F 60% 30.23 in 10.0 mi WNW 25.3 mph 31.1 mph N/A   Clear
6:15 AM 33.8 °F 22.8 °F 19.4 °F 56% 30.23 in 10.0 mi WNW 18.4 mph 29.9 mph N/A   Clear
6:35 AM 33.8 °F 23.5 °F 21.2 °F 60% 30.23 in 10.0 mi NW 16.1 mph - N/A   Clear
6:55 AM 33.8 °F 23.9 °F 19.4 °F 56% 30.23 in 10.0 mi NW 15.0 mph 23.0 mph N/A   Clear
7:15 AM 32.0 °F 21.6 °F 19.4 °F 60% 30.22 in 10.0 mi NW 15.0 mph 19.6 mph N/A   Clear
7:35 AM 33.8 °F 22.2 °F 21.2 °F 60% 30.22 in 10.0 mi West 20.7 mph 26.5 mph N/A   Clear
7:55 AM 33.8 °F 23.2 °F 21.2 °F 60% 30.22 in 10.0 mi WNW 17.3 mph 28.8 mph N/A   Clear
8:15 AM 33.8 °F 21.3 °F 19.4 °F 56% 30.20 in 10.0 mi WNW 24.2 mph - N/A   Clear
8:35 AM 35.6 °F 24.5 °F 19.4 °F 52% 30.20 in 10.0 mi NW 20.7 mph 31.1 mph N/A   Clear
8:55 AM 35.6 °F 24.5 °F 19.4 °F 52% 30.20 in 10.0 mi NW 20.7 mph - N/A   Clear
9:15 AM 37.4 °F 27.8 °F 19.4 °F 48% 30.20 in 10.0 mi NW 17.3 mph 29.9 mph N/A   Clear
9:35 AM 37.4 °F 28.2 °F 19.4 °F 48% 30.20 in 10.0 mi WNW 16.1 mph 26.5 mph N/A   Clear
9:55 AM 41.0 °F 33.1 °F 19.4 °F 42% 30.20 in 10.0 mi NW 15.0 mph 24.2 mph N/A   Clear
10:15 AM 41.0 °F 33.1 °F 17.6 °F 39% 30.20 in 10.0 mi WNW 15.0 mph 25.3 mph N/A   Clear
10:35 AM 42.8 °F 34.0 °F 17.6 °F 36% 30.18 in 10.0 mi WNW 20.7 mph 27.6 mph N/A   Clear
10:55 AM 42.8 °F 34.0 °F 17.6 °F 36% 30.18 in 10.0 mi WNW 20.7 mph 25.3 mph N/A   Clear
11:15 AM 42.8 °F 35.4 °F 17.6 °F 36% 30.17 in 10.0 mi WNW 15.0 mph 26.5 mph N/A   Clear
11:35 AM 44.6 °F 36.4 °F 17.6 °F 34% 30.16 in 10.0 mi WNW 20.7 mph 29.9 mph N/A   Clear
11:55 AM 42.8 °F 33.1 °F 17.6 °F 36% 30.15 in 10.0 mi WNW 25.3 mph 33.4 mph N/A   Clear
12:15 PM 44.6 °F 34.7 °F 17.6 °F 34% 30.14 in 10.0 mi West 29.9 mph 34.5 mph N/A   Clear
12:35 PM 44.6 °F 35.5 °F 17.6 °F 34% 30.14 in 10.0 mi WNW 25.3 mph 33.4 mph N/A   Clear
12:55 PM 44.6 °F 35.7 °F 17.6 °F 34% 30.13 in 10.0 mi WNW 24.2 mph 32.2 mph N/A   Clear
1:15 PM 42.8 °F 32.5 °F 15.8 °F 34% 30.12 in 10.0 mi WNW 28.8 mph 33.4 mph N/A   Clear
1:35 PM 42.8 °F 32.7 °F 15.8 °F 34% 30.12 in 10.0 mi WNW 27.6 mph 35.7 mph N/A   Clear
1:55 PM 42.8 °F 33.1 °F 14.0 °F 31% 30.12 in 10.0 mi NW 25.3 mph 33.4 mph N/A   Clear
2:15 PM 42.8 °F 34.0 °F 14.0 °F 31% 30.11 in 10.0 mi NW 20.7 mph 29.9 mph N/A   Clear
2:35 PM 42.8 °F 34.5 °F 14.0 °F 31% 30.10 in 10.0 mi NW 18.4 mph 27.6 mph N/A   Clear
2:55 PM 42.8 °F 34.5 °F 14.0 °F 31% 30.11 in 10.0 mi NW 18.4 mph 25.3 mph N/A   Clear
3:15 PM 42.8 °F 34.5 °F 15.8 °F 34% 30.10 in 10.0 mi NNW 18.4 mph 23.0 mph N/A   Clear
3:35 PM 41.0 °F 32.5 °F 15.8 °F 36% 30.12 in 10.0 mi NW 17.3 mph 25.3 mph N/A   Clear
3:55 PM 41.0 °F 33.9 °F 15.8 °F 36% 30.12 in 10.0 mi NNW 12.7 mph 23.0 mph N/A   Clear
4:15 PM 39.2 °F 30.5 °F 17.6 °F 42% 30.12 in 10.0 mi NNW 16.1 mph 25.3 mph N/A   Clear
4:30 PM 37.4 °F 28.5 °F 17.6 °F 45% 30.13 in 10.0 mi NW 15.0 mph 25.3 mph N/A   Clear
4:55 PM 35.6 °F 26.6 °F 17.6 °F 48% 30.13 in 10.0 mi NNW 13.8 mph - N/A   Clear
5:15 PM 33.8 °F 25.8 °F 17.6 °F 52% 30.13 in 10.0 mi NNW 10.4 mph - N/A   Clear
5:35 PM 32.0 °F 27.5 °F 17.6 °F 55% 30.13 in 10.0 mi North 4.6 mph - N/A   Clear
5:55 PM 32.0 °F 21.2 °F 17.6 °F 55% 30.12 in 10.0 mi NW 16.1 mph 21.9 mph N/A   Clear
6:15 PM 32.0 °F 22.1 °F 15.8 °F 51% 30.12 in 10.0 mi NW 13.8 mph 24.2 mph N/A   Clear
6:35 PM 33.8 °F 24.8 °F 15.8 °F 48% 30.13 in 10.0 mi NNW 12.7 mph 23.0 mph N/A   Clear
6:55 PM 32.0 °F 21.2 °F 15.8 °F 51% 30.12 in 10.0 mi NW 16.1 mph 26.5 mph N/A   Clear
7:15 PM 33.8 °F 22.2 °F 14.0 °F 44% 30.11 in 10.0 mi WNW 20.7 mph 24.2 mph N/A   Clear
7:35 PM 33.8 °F 21.9 °F 14.0 °F 44% 30.10 in 10.0 mi NW 21.9 mph - N/A   Clear
7:55 PM 33.8 °F 22.8 °F 14.0 °F 44% 30.11 in 10.0 mi NW 18.4 mph 26.5 mph N/A   Clear
8:10 PM 32.0 °F 21.2 °F 15.8 °F 51% 30.12 in 10.0 mi WNW 16.1 mph 21.9 mph N/A   Clear
8:35 PM 32.0 °F 21.6 °F 15.8 °F 51% 30.12 in 10.0 mi WNW 15.0 mph - N/A   Clear
8:55 PM 32.0 °F 20.1 °F 15.8 °F 51% 30.12 in 10.0 mi WNW 19.6 mph - N/A   Clear
9:15 PM 33.8 °F 22.8 °F 15.8 °F 48% 30.11 in 10.0 mi WNW 18.4 mph 24.2 mph N/A   Clear
9:35 PM 33.8 °F 21.9 °F 15.8 °F 48% 30.10 in 10.0 mi NW 21.9 mph 28.8 mph N/A   Clear
9:55 PM 33.8 °F 21.9 °F 17.6 °F 52% 30.10 in 10.0 mi WNW 21.9 mph 29.9 mph N/A   Clear
10:15 PM 32.0 °F 21.6 °F 15.8 °F 51% 30.10 in 10.0 mi NW 15.0 mph 23.0 mph N/A   Clear
10:35 PM 32.0 °F 21.6 °F 17.6 °F 55% 30.10 in 10.0 mi NW 15.0 mph 21.9 mph N/A   Clear
10:55 PM 32.0 °F 23.0 °F 17.6 °F 55% 30.10 in 10.0 mi WNW 11.5 mph - N/A   Clear
11:15 PM 32.0 °F 20.5 °F 17.6 °F 55% 30.08 in 10.0 mi WNW 18.4 mph - N/A   Clear
11:35 PM 33.8 °F 22.2 °F 17.6 °F 52% 30.08 in 10.0 mi West 20.7 mph 26.5 mph N/A   Clear
11:55 PM 33.8 °F 21.9 °F 15.8 °F 48% 30.08 in 10.0 mi West 21.9 mph 26.5 mph N/A   Clear